Dewpoint
57 57 56 54 51 48 48 47 46 43 43 43 42 44 42 41 41 43 48 55 54 52 49 52 52 52 51 50 49 49 50 51 52 52 52 53 54 55 56 57 58 60 61
59 55 52 51 48 47 47 46 43 42 42 42 42 43 41 41 38 39 41 46 54 55 52 50 48 47 47 46 46 46 47 47 47 49 50 50 51 51 52 53 55 56 58
53 49 51 49 47 46 44 44 44 45 44 43 42 42 41 39 38 37 38 39 50 53 53 48 44 43 44 44 44 44 44 44 45 47 47 47 49 50 50 50 51 53 55
50 50 49 48 47 47 46 46 46 44 44 43 42 41 39 37 35 33 34 34 39 48 52 51 47 44 43 43 43 43 42 44 45 45 45 46 47 47 48 48 48 49 51
48 49 49 47 45 46 47 46 45 45 43 43 37 34 37 37 34 35 31 30 34 35 43 50 48 47 39 39 41 41 42 42 43 43 44 45 45 44 45 46 47 47 48
45 47 48 47 46 45 45 44 43 44 44 40 35 34 35 35 34 34 32 30 31 31 35 34 34 35 41 37 37 37 39 39 40 42 43 43 43 43 43 44 45 46 46
46 44 44 43 44 43 43 43 43 39 39 39 34 33 32 33 30 31 32 31 30 31 32 31 32 31 32 35 33 34 35 37 39 38 38 39 40 40 41 42 43 45 46
43 43 43 43 42 42 41 41 39 38 39 37 33 33 29 30 31 30 29 27 28 30 29 30 29 29 29 28 28 29 29 31 32 34 35 36 37 39 39 41 42 43 44
30 31 36 36 36 39 40 40 39 39 36 36 35 33 29 28 28 28 26 27 27 27 28 29 28 27 26 27 28 31 34 34 34 34 35 34 35 37 39 40 41 42 44
31 31 35 36 36 37 35 39 40 40 37 35 35 33 31 30 25 24 25 25 26 24 26 27 29 27 27 29 31 35 40 34 29 31 32 34 35 35 37 39 40 41 43
32 33 35 35 37 39 39 41 40 39 38 36 34 32 29 28 25 24 22 23 25 25 26 28 28 28 29 26 26 28 39 37 33 30 32 33 34 35 36 39 39 40 43
33 35 33 37 37 39 41 40 39 39 38 36 36 34 30 26 25 25 24 24 23 25 24 25 26 28 28 26 27 36 38 37 35 31 32 32 34 34 35 37 37 39 41
31 31 33 35 37 40 39 39 39 39 38 37 36 33 31 30 28 26 25 23 23 23 23 25 26 26 24 27 28 33 31 35 34 30 31 32 32 33 33 35 36 38 41
31 30 33 34 35 38 39 39 39 38 38 37 36 32 32 28 30 27 25 23 22 21 22 22 25 25 25 27 28 31 28 30 32 33 30 29 30 31 32 34 36 37 40
28 31 32 32 34 36 38 38 38 37 37 33 32 31 32 30 29 27 26 25 24 21 20 21 22 23 26 26 27 26 26 28 32 32 31 32 31 31 32 34 35 37 39
30 31 31 32 32 32 34 37 36 35 32 35 33 32 31 32 31 30 25 26 25 24 21 22 22 23 23 22 24 24 25 27 28 31 31 33 32 32 33 33 34 35 35
31 30 32 32 32 32 32 31 31 28 32 32 32 31 30 31 29 28 26 25 24 22 19 20 21 23 22 23 22 25 25 22 24 28 31 32 33 34 35 36 36 36 35
31 30 31 32 33 33 32 32 32 31 31 32 32 30 29 27 25 24 23 21 20 20 20 18 19 19 20 21 22 21 20 21 23 26 30 31 32 33 36 36 37 38 37
30 31 31 32 33 32 31 32 32 30 30 30 30 29 28 26 21 21 19 18 19 18 20 19 17 19 19 20 19 21 22 23 21 26 27 29 32 34 34 35 37 38 38
30 30 32 34 35 31 30 30 30 29 28 27 27 26 25 21 18 17 17 17 17 19 19 18 17 17 18 19 20 20 21 25 25 24 26 31 30 33 33 36 36 37 37
30 31 32 33 34 33 31 29 27 26 25 25 25 24 22 23 25 20 17 17 19 19 19 18 17 17 17 18 19 23 23 22 21 23 25 25 26 30 32 35 36 36 35
32 32 31 32 32 32 32 32 27 23 23 23 24 23 21 23 25 25 23 23 21 19 19 19 18 17 18 19 25 22 19 17 15 22 23 21 24 25 30 33 36 35 36
32 31 31 31 30 32 32 30 26 20 21 23 24 21 20 20 21 19 20 20 20 21 21 20 18 16 16 18 20 18 18 19 19 20 22 19 21 21 27 26 32 36 36
30 30 31 31 31 30 32 30 26 20 22 25 22 21 20 20 20 19 19 18 19 18 17 17 16 15 16 19 21 20 20 20 21 22 22 19 21 22 25 27 30 33 35
30 29 30 30 31 30 31 28 22 23 25 24 24 23 22 18 22 19 19 19 18 18 18 20 20 22 23 24 23 25 25 24 20 20 22 21 21 23 25 27 27 30 34
29 30 28 29 30 28 30 27 23 25 24 25 23 22 23 20 20 20 21 19 18 17 18 17 18 20 21 22 25 24 23 23 23 22 22 23 22 25 22 24 25 25 25
Lifted_Index
1 1 2 2 3 3 4 3 4 4 5 6 7 7 7 7 7 7 7 6 5 5 4 4 5 5 6 7 7 7 8 7 7 7 7 6 6 5 4 3 3 2 1
1 1 2 2 4 4 4 4 5 5 6 6 7 7 7 7 7 7 7 7 6 5 5 5 6 7 7 7 8 8 8 8 8 8 8 8 7 7 6 5 4 3 3
1 2 3 4 5 6 6 6 6 6 6 6 7 7 7 7 7 7 8 8 6 5 5 6 7 8 8 9 9 9 9 9 9 9 9 9 9 9 8 7 6 5 4
4 4 4 5 6 6 6 6 6 6 6 6 7 7 8 8 8 8 8 8 8 7 6 7 8 9 10 10 10 10 10 10 10 10 10 10 10 11 10 10 9 7 6
6 6 6 6 6 6 6 6 6 7 7 7 7 7 8 9 9 9 9 9 9 9 8 8 9 10 11 12 12 12 12 11 11 11 11 11 11 12 12 12 11 10 9
7 6 6 6 6 7 7 7 7 8 8 8 8 8 9 9 9 9 10 10 10 10 11 11 12 12 13 13 13 13 13 13 13 12 12 13 13 13 13 13 13 12 12
7 7 7 7 7 8 8 8 8 9 9 9 8 8 9 10 10 10 10 10 11 12 12 13 13 14 14 15 15 15 15 14 14 14 14 15 14 14 14 14 13 13 13
7 8 8 9 9 10 9 9 9 9 9 9 9 9 9 10 11 11 11 11 12 12 13 13 14 15 15 16 16 16 15 15 15 16 16 16 16 16 15 14 14 13 13
9 9 10 11 11 11 11 10 9 9 9 9 9 9 10 11 11 12 12 13 13 13 13 13 14 14 14 15 15 15 14 15 15 15 16 16 16 16 16 15 15 14 13
10 11 12 13 13 12 12 10 9 9 8 8 9 9 10 11 11 12 13 13 13 13 13 13 13 13 12 12 12 12 12 13 14 14 14 15 15 16 16 16 15 15 14
12 12 13 13 12 11 11 10 9 8 8 8 9 9 10 11 11 12 12 13 13 13 12 11 11 10 10 10 10 10 9 10 11 12 12 13 13 14 15 15 15 15 14
12 13 13 13 12 11 10 9 9 9 9 9 9 10 11 11 11 12 12 12 13 12 11 10 9 8 8 8 8 7 7 8 8 9 10 10 11 12 12 13 14 14 14
12 13 13 13 11 10 10 9 10 10 10 10 10 11 11 11 12 12 12 12 12 11 10 8 7 7 7 7 7 6 6 7 7 8 9 9 9 10 10 11 11 12 12
13 13 13 12 12 11 10 10 10 11 11 10 11 11 11 11 12 12 12 12 11 10 9 7 6 6 6 6 6 6 7 7 8 8 9 9 9 9 9 9 9 9 9
13 13 13 12 12 11 11 10 10 11 11 11 11 11 11 11 12 12 12 11 10 9 8 7 6 6 7 7 7 7 7 8 8 8 9 9 9 9 8 8 8 8 8
13 13 13 13 12 12 12 11 11 11 11 11 11 11 11 11 11 11 10 9 8 8 8 7 7 7 7 8 8 8 9 9 9 9 9 8 8 8 8 7 7 7 8
12 13 13 13 12 12 12 11 11 11 11 11 11 11 11 11 11 10 9 8 8 8 8 8 8 8 9 9 10 10 10 10 9 9 8 8 7 7 7 7 7 7 7
12 12 13 13 12 12 12 12 12 12 12 11 11 11 11 11 10 9 8 8 8 9 9 10 10 10 10 11 11 11 10 10 10 9 8 8 7 7 6 6 6 6 6
12 12 13 12 12 11 11 11 12 12 11 11 12 12 11 11 10 9 8 8 9 10 10 11 11 11 11 11 11 11 10 10 10 9 9 8 7 7 6 6 5 5 5
12 12 12 12 12 11 11 11 11 11 11 11 12 12 11 10 9 8 8 9 9 10 11 11 11 11 11 11 11 11 10 10 10 10 9 8 8 7 7 6 5 5 5
12 12 12 12 11 11 10 10 10 10 10 11 12 11 10 9 9 8 9 9 10 10 11 11 11 11 11 11 11 10 10 10 10 10 10 10 9 9 8 7 6 6 5
11 11 11 11 11 10 10 9 9 9 10 10 10 10 9 9 8 8 9 9 10 11 11 11 11 11 11 11 11 11 11 11 10 11 11 11 11 10 8 7 7 6 6
11 11 11 10 10 9 9 9 9 9 9 9 9 9 8 8 8 8 9 9 10 11 12 12 11 11 11 11 11 11 11 11 11 11 12 11 11 10 8 7 6 5 5
10 10 10 9 9 9 9 8 8 8 8 8 8 8 8 8 8 8 9 9 10 11 12 12 12 12 12 11 11 11 11 11 11 11 11 11 10 8 7 5 4 4 3
10 10 10 9 8 8 8 7 7 7 7 7 7 8 8 8 8 8 9 9 10 10 11 11 12 12 12 11 11 10 10 10 10 10 10 9 8 7 5 4 3 3 2
10 10 9 9 8 7 7 6 6 7 7 7 7 8 8 8 8 8 9 9 10 10 10 11 11 12 11 11 11 10 10 10 10 10 9 8 7 5 4 3 3 3 2